Location: Banff
(51.1667°N, 115.5667°W)
Time: 14:16:58
(UTC+00:00)

Tiros 1 - Pass Details

Date: 05 August 2021
Orbit: 630 x 663 km, 48.4° (Epoch: 27 September)

Event Time Altitude Azimuth Distance (km) Brightness Sun altitude
Rises 06:53:24 0° 276° (W) 2,965 10.8 -20.9°
Reaches altitude 10° 06:57:10 10° 246° (WSW) 2,041 9.6 -21.0°
Enters shadow 06:57:31 11° 241° (WSW) 1,993 9.5 -21.0°
